FW2439 Weather Reports


time (UTC)temp
F
wind
direction
speed
knots
gust
knots
rain 1hr
in
rain 24hr
in
rain mn
in
humidity
%
barometer
mb
20260903224514 98 257 0.0 0.9 0.00 0.00 0.00 54 1013.0
20260903223013 99 283 0.0 1.7 0.00 0.00 0.00 50 1013.1
20260903221513 99 228 0.0 1.7 0.00 0.00 0.00 52 1013.1
20260903220012 100 264 0.9 2.6 0.00 0.00 0.00 49 1013.0
20260903214510 100 346 0.9 3.5 0.00 0.00 0.00 47 1013.0
20260903213008 99 243 0.9 3.5 0.00 0.00 0.00 48 1013.1
20260903211507 100 259 0.0 2.6 0.00 0.00 0.00 51 1013.2
20260903210005 99 356 0.9 3.5 0.00 0.00 0.00 48 1013.4
20260903204501 100 222 2.6 5.2 0.00 0.00 0.00 48 1013.7
20260903203058 99 311 0.9 3.5 0.00 0.00 0.00 48 1013.8
20260903201556 100 23 0.9 3.5 0.00 0.00 0.00 48 1014.0
20260903200111 100 231 0.9 3.5 0.00 0.00 0.00 54 1014.3
20260903194551 98 233 0.9 5.2 0.00 0.00 0.00 52 1014.3
20260903193046 97 228 0.0 2.6 0.00 0.00 0.00 55 1014.7
20260903191544 95 265 0.0 1.7 0.00 0.00 0.00 60 1014.8
20260903190042 96 264 0.0 1.7 0.00 0.00 0.00 54 1015.0
20260903184545 96 225 0.9 2.6 0.00 0.00 0.00 55 1015.1
20260903183046 95 220 0.9 2.6 0.00 0.00 0.00 57 1015.2
20260903181541 94 261 0.0 0.9 0.00 0.00 0.00 60 1015.3
20260903180042 96 340 0.9 2.6 0.00 0.00 0.00 55 1015.4
20260903174536 96 236 0.0 1.7 0.00 0.00 0.00 59 1015.5
20260903173034 95 219 0.0 2.6 0.00 0.00 0.00 59 1015.8
20260903171535 96 333 0.9 3.5 0.00 0.00 0.00 57 1016.0
20260903170040 96 228 0.0 2.6 0.00 0.00 0.00 59 1016.2
20260903164532 96 340 0.9 2.6 0.00 0.00 0.00 60 1016.4
20260903163035 95 316 0.0 2.6 0.00 0.00 0.00 63 1016.5
20260903161525 94 259 0.9 4.3 0.00 0.00 0.00 62 1016.7
20260903160024 94 316 0.9 2.6 0.00 0.00 0.00 64 1016.8
20260903154522 94 314 0.0 2.6 0.00 0.00 0.00 64 1016.9
20260903153018 94 233 0.0 0.9 0.00 0.00 0.00 65 1016.8
20260903151514 93 221 0.0 1.7 0.00 0.00 0.00 66 1016.8
20260903150013 93 283 0.0 0.9 0.00 0.00 0.00 67 1016.9
20260903144508 91 223 0.0 0.0 0.00 0.00 0.00 69 1017.0
20260903143003 90 247 0.0 0.0 0.00 0.00 0.00 73 1016.9
20260903141559 86 246 0.0 0.0 0.00 0.00 0.00 79 1016.9
20260903140106 82 247 0.0 0.0 0.00 0.00 0.00 87 1017.1
20260903134551 79 247 0.0 0.9 0.00 0.00 0.00 91 1017.2
20260903133047 77 265 0.0 0.9 0.00 0.00 0.00 96 1017.3
20260903131542 75 268 0.0 0.0 0.00 0.00 0.00 98 1017.3
20260903130045 74 268 0.0 0.0 0.00 0.00 0.00 99 1017.3
20260903124538 73 268 0.0 0.0 0.00 0.00 0.00 99 1017.3
20260903123036 73 268 0.0 0.0 0.00 0.00 0.00 99 1017.1
20260903121534 72 268 0.0 0.0 0.00 0.00 0.00 99 1017.0
20260903120036 72 268 0.0 0.0 0.00 0.00 0.00 99 1016.8
20260903114532 72 268 0.0 0.0 0.00 0.00 0.00 98 1016.7
20260903113031 72 268 0.0 0.0 0.00 0.00 0.00 98 1016.5
20260903111529 72 268 0.0 0.0 0.00 0.00 0.00 98 1016.3
20260903110029 72 268 0.0 0.0 0.00 0.00 0.00 98 1016.2
20260903104527 72 268 0.0 0.0 0.00 0.00 0.00 98 1016.1
20260903103026 72 268 0.0 0.0 0.00 0.00 0.00 98 1016.0
20260903101540 72 268 0.0 0.0 0.00 0.00 0.00 98 1016.0
20260903100032 72 268 0.0 0.0 0.00 0.00 0.00 98 1015.9
20260903094525 72 268 0.0 0.0 0.00 0.00 0.00 97 1016.1
20260903093032 72 268 0.0 0.0 0.00 0.00 0.00 97 1015.9
20260903091523 72 268 0.0 0.0 0.00 0.00 0.00 97 1016.0
20260903090023 73 268 0.0 0.0 0.00 0.00 0.00 97 1016.0
20260903084530 73 268 0.0 0.0 0.00 0.00 0.00 97 1016.0
20260903083025 73 268 0.0 0.0 0.00 0.00 0.00 97 1015.9
20260903081519 73 268 0.0 0.0 0.00 0.00 0.00 96 1015.7
20260903080036 73 268 0.0 0.0 0.00 0.00 0.00 96 1015.7
20260903074519 73 268 0.0 0.0 0.00 0.00 0.00 96 1015.7
20260903073022 73 268 0.0 0.0 0.00 0.00 0.00 96 1015.7
20260903071515 73 268 0.0 0.0 0.00 0.00 0.00 95 1015.8
20260903070017 73 268 0.0 0.0 0.00 0.00 0.00 95 1015.8
20260903064512 73 268 0.0 0.0 0.00 0.00 0.00 95 1016.0
20260903063011 74 268 0.0 0.0 0.00 0.00 0.00 94 1016.2
20260903061514 74 268 0.0 0.0 0.00 0.00 0.00 94 1016.1
20260903060007 74 268 0.0 0.0 0.00 0.00 0.00 94 1016.1
20260903054509 74 268 0.0 0.0 0.00 0.00 0.00 94 1016.1
20260903053003 74 268 0.0 0.0 0.00 0.00 0.00 94 1016.0
20260903051502 74 268 0.0 0.0 0.00 0.00 0.00 94 1015.9
20260903050100 75 268 0.0 0.0 0.00 0.00 0.00 93 1015.9
20260903044601 75 268 0.0 0.0 0.00 0.00 0.00 93 1015.9
20260903043058 75 268 0.0 0.0 0.00 0.00 0.00 92 1016.0
20260903041610 75 268 0.0 0.0 0.00 0.00 0.00 92 1015.9
20260903040115 76 268 0.0 0.0 0.00 0.00 0.00 91 1015.8
20260903034601 76 268 0.0 0.0 0.00 0.00 0.00 91 1016.0
20260903033055 76 268 0.0 0.0 0.00 0.00 0.00 90 1016.2
20260903031553 77 268 0.0 0.0 0.00 0.00 0.00 90 1016.0
20260903030054 77 268 0.0 0.0 0.00 0.00 0.00 89 1016.1
20260903024554 78 268 0.0 0.0 0.00 0.00 0.00 88 1016.0
20260903023055 78 268 0.0 0.0 0.00 0.00 0.00 87 1015.8
20260903021552 79 268 0.0 0.0 0.00 0.00 0.00 87 1015.7
20260903020052 80 268 0.0 0.0 0.00 0.00 0.00 86 1015.9
20260903014554 80 268 0.0 0.0 0.00 0.00 0.00 85 1015.5
20260903013052 81 268 0.0 0.0 0.00 0.00 0.00 83 1015.3
20260903011553 82 268 0.0 0.0 0.00 0.00 0.00 82 1015.3
20260903010050 83 268 0.0 0.0 0.00 0.00 0.00 79 1015.1
20260903004555 84 268 0.0 0.0 0.00 0.00 0.00 77 1015.2
20260903003049 86 268 0.0 0.0 0.00 0.00 0.00 74 1015.2
20260903001601 87 268 0.0 0.0 0.00 0.00 0.00 71 1015.3
20260903000047 89 268 0.0 0.0 0.00 0.00 0.00 69 1015.2
20260902234547 91 268 0.0 0.0 0.00 0.00 0.00 66 1015.3
20260902233047 92 268 0.0 0.0 0.00 0.00 0.00 63 1015.3
20260902231546 93 267 0.0 0.0 0.00 0.00 0.00 61 1015.3
20260902230047 94 267 0.0 0.9 0.00 0.00 0.00 59 1015.3